Weather History for 94664 - April, 2013

Change the Weather History Date:

Saturday, April 13, 2013

  Actual Average Record
Temperature  
Mean Temperature 76 °F -  
Max Temperature 89 °F - - ()
Min Temperature 64 °F - - ()
Cooling Degree Days 12    
Growing Degree Days 26 (Base 50)    
Moisture  
Dew Point 40 °F    
Average Humidity 27    
Maximum Humidity 49    
Minimum Humidity 16    
Precipitation  
Precipitation 0.00 in - - ()
Sea Level Pressure  
Sea Level Pressure 29.91 in    
Wind  
Wind Speed 10 mph ()    
Max Wind Speed 23 mph    
Max Gust Speed 29 mph    
Visibility 6.2 miles    
Events      
T = Trace of Precipitation, MM = Missing Value Source: Averaged Metar Reports

Daily Weather History Graph

Daily Weather History Graph

Search for Another Location

Airport or City:

Trip Planner

Search our weather history database for the weather conditions in past years. The results will help you decide how hot, cold, wet, or windy it might be!

Date:

Astronomy

Apr. 13, 2013 Rise Set
Actual Time 6:40 AM ACST 6:00 PM ACST
Civil Twilight 6:15 AM ACST 6:25 PM ACST
Nautical Twilight 5:46 AM ACST 6:54 PM ACST
Astronomical Twilight 5:17 AM ACST 7:22 PM ACST
Moon 9:05 AM ACST (4/13) 7:45 PM ACST (4/13)
Length of Visible Light 12h 10m
Length of Day
11h 20m
Waxing Crescent, 7% of the Moon is Illuminated
Apr 13
Waxing Crescent
Apr 18
First Quarter
Apr 26
Full
May 2
Last Quarter
May 10
New

Hourly Weather History & Observations

Time (ACST) Temp. Dew Point Humidity Pressure Visibility Wind Dir Wind Speed Gust Speed Precip Events Conditions
12:30 AM 64.4 °F 35.6 °F 34% 29.95 in 6.2 mi WNW 8.1 mph - N/A   Unknown
1:30 AM 69.8 °F 37.4 °F 31% 29.95 in 6.2 mi NNW 10.4 mph - N/A   Unknown
2:30 AM 68.0 °F 35.6 °F 30% 29.95 in 6.2 mi NW 9.2 mph - N/A   Unknown
3:30 AM 73.4 °F 37.4 °F 27% 29.92 in 6.2 mi North 12.7 mph - N/A   Unknown
4:30 AM 73.4 °F 37.4 °F 27% 29.92 in 6.2 mi NNW 11.5 mph - N/A   Unknown
5:30 AM 73.4 °F 37.4 °F 27% 29.95 in 6.2 mi NNW 12.7 mph - N/A   Unknown
6:30 AM 71.6 °F 37.4 °F 29% 29.95 in 6.2 mi NW 6.9 mph - N/A   Unknown
7:30 AM 71.6 °F 37.4 °F 29% 29.95 in 6.2 mi NNW 8.1 mph - N/A   Unknown
8:30 AM 75.2 °F 39.2 °F 27% 29.95 in 6.2 mi North 10.4 mph - N/A   Unknown
9:30 AM 80.6 °F 37.4 °F 21% 29.98 in 6.2 mi NNW 15.0 mph - N/A   Unknown
10:30 AM 82.4 °F 37.4 °F 20% 29.95 in 6.2 mi NNW 18.4 mph - N/A   Unknown
10:57 AM 84.2 °F 37.4 °F 19% 29.95 in 6.2 mi NW 17.3 mph 28.8 mph N/A   Unknown
11:30 AM 86.0 °F 37.4 °F 18% 29.95 in 6.2 mi NNW 18.4 mph - N/A   Unknown
12:30 PM 89.6 °F 37.4 °F 16% 29.92 in 6.2 mi NNW 23.0 mph - N/A   Unknown
1:30 PM 87.8 °F 37.4 °F 17% 29.89 in 6.2 mi NW 18.4 mph - N/A   Unknown
2:30 PM 87.8 °F 37.4 °F 17% 29.86 in 6.2 mi NW 16.1 mph - N/A   Unknown
3:30 PM 89.6 °F 37.4 °F 16% 29.86 in 6.2 mi NW 15.0 mph - N/A   Unknown
4:30 PM 89.6 °F 37.4 °F 16% 29.83 in 6.2 mi NW 11.5 mph - N/A   Unknown
5:30 PM 86.0 °F 37.4 °F 18% 29.83 in 6.2 mi NNW 9.2 mph - N/A   Scattered Clouds
6:30 PM 82.4 °F 37.4 °F 20% 29.86 in 6.2 mi NNW 5.8 mph - N/A   Unknown
7:30 PM 78.8 °F 39.2 °F 24% 29.86 in 6.2 mi WSW 5.8 mph - N/A   Scattered Clouds
8:30 PM 75.2 °F 53.6 °F 47% 29.86 in 6.2 mi SW 4.6 mph - N/A   Unknown
9:30 PM 73.4 °F 51.8 °F 47% 29.86 in 6.2 mi NW 3.5 mph - N/A   Unknown
10:30 PM 69.8 °F 50.0 °F 49% 29.86 in 6.2 mi WSW 5.8 mph - N/A   Unknown
11:30 PM 69.8 °F 48.2 °F 46% 29.86 in 6.2 mi NW 4.6 mph - N/A   Unknown